Location: Poughquag
(41.6090°N, 73.6820°W)
Time: 23:27:13
(UTC-05:00)

Tiros 1 despin weight - Pass Details

Date: 10 December 2023
Orbit: 581 x 624 km, 48.2° (Epoch: 21 February)

Event Time Altitude Azimuth Distance (km) Brightness Sun altitude
Rises 18:15:03 0° 281° (W) 2,808 ? -19.9°
Reaches altitude 10° 18:17:30 10° 291° (WNW) 1,903 ? -20.4°
Maximum altitude 18:21:29 34° 357° (N) 969 ? -21.1°
Enters shadow 18:21:52 33° 9° (N) 982 ? -21.2°
